Simultaneous Nadir Overpasses (SNOs) Predictions

Prediction of SNOs between METOP-A and NPP Satellite Orbit:

Table of predicted SNOs for the next 14.0 days since TLE Epoch: 10/16/2021
Index Date (METOP-A) Time (METOP-A) Lat,Lon (METOP-A) SZA (METOP-A ) Date (NPP) Time (NPP) Lat,Lon (NPP) SZA (NPP ) Distance(km) Time Diff (sec)
1 10/19/2021 20:28:08 77.64,-146.01 88.29 10/19/2021 20:27:02 77.61,-149.54 88.49 84.19 66
2 10/19/2021 21:18:53 -77.49, 20.66 91.82 10/19/2021 21:17:44 -77.50, 18.27 91.64 57.41 69
3 10/19/2021 22:09:38 77.27,-172.94 88.04 10/19/2021 22:08:24 77.27,-173.37 88.09 10.58 74
4 10/19/2021 23:00:21 -77.21, -5.87 91.99 10/19/2021 22:59:07 -77.21, -5.77 91.98 2.46 74
5 10/19/2021 23:51:01 77.21, 161.45 88.02 10/19/2021 23:49:53 77.23, 161.44 88.06 2.43 68
6 10/20/2021 00:41:42 -77.23, -31.12 91.95 10/20/2021 00:40:37 -77.21, -31.15 91.96 2.99 65
7 10/20/2021 01:32:22 77.23, 136.20 88.06 10/20/2021 01:31:23 77.23, 136.07 88.09 3.27 59
8 10/20/2021 02:23:04 -77.21, -56.55 91.94 10/20/2021 02:22:07 -77.20, -56.52 91.93 0.93 57
9 10/20/2021 03:13:44 77.21, 110.77 88.07 10/20/2021 03:12:53 77.23, 110.69 88.11 2.91 51
10 10/20/2021 04:04:26 -77.19, -81.98 91.93 10/20/2021 04:03:37 -77.20, -81.89 91.91 2.70 49
11 10/20/2021 04:55:06 77.19, 85.34 88.08 10/20/2021 04:54:22 77.18, 85.51 88.08 4.04 44
12 10/20/2021 05:45:47 -77.21,-107.23 91.89 10/20/2021 05:45:07 -77.20,-107.27 91.88 1.30 40
13 10/20/2021 06:36:27 77.21, 60.09 88.13 10/20/2021 06:35:52 77.18, 60.13 88.11 2.96 35
14 10/20/2021 07:27:09 -77.19,-132.65 91.88 10/20/2021 07:26:37 -77.20,-132.64 91.86 1.54 32
15 10/20/2021 08:17:49 77.19, 34.67 88.14 10/20/2021 08:17:22 77.18, 34.76 88.13 2.35 27
16 10/20/2021 09:08:30 -77.21,-157.90 91.84 10/20/2021 09:08:07 -77.20,-158.01 91.84 2.92 23
17 10/20/2021 09:59:10 77.21, 9.42 88.18 10/20/2021 09:58:52 77.18, 9.39 88.16 3.12 18
18 10/20/2021 10:49:52 -77.19, 176.67 91.83 10/20/2021 10:49:37 -77.20, 176.61 91.81 1.86 15
19 10/20/2021 11:40:32 77.19, -16.01 88.19 10/20/2021 11:40:22 77.18, -15.99 88.18 0.89 10
20 10/20/2021 12:31:14 -77.17, 151.24 91.82 10/20/2021 12:31:07 -77.20, 151.24 91.79 3.61 7
21 10/20/2021 13:21:54 77.17, -41.44 88.20 10/20/2021 13:21:52 77.18, -41.36 88.21 2.57 2
22 10/20/2021 14:12:35 -77.19, 125.99 91.78 10/20/2021 14:12:37 -77.20, 125.87 91.76 3.26 2
23 10/20/2021 15:03:15 77.19, -66.69 88.24 10/20/2021 15:03:22 77.18, -66.73 88.23 1.44 7
24 10/20/2021 15:53:57 -77.17, 100.56 91.77 10/20/2021 15:54:06 -77.16, 100.68 91.79 3.14 9
25 10/20/2021 16:44:37 77.17, -92.12 88.25 10/20/2021 16:44:52 77.18, -92.11 88.26 1.49 15
26 10/20/2021 17:35:18 -77.19, 75.31 91.73 10/20/2021 17:35:36 -77.16, 75.30 91.77 3.98 18
27 10/20/2021 18:25:58 77.19,-117.37 88.29 10/20/2021 18:26:22 77.18,-117.48 88.28 3.06 24
28 10/20/2021 19:16:40 -77.17, 49.89 91.72 10/20/2021 19:17:06 -77.16, 49.93 91.74 1.96 26
29 10/20/2021 20:07:20 77.17,-142.79 88.30 10/20/2021 20:07:52 77.18,-142.85 88.30 1.96 32
30 10/20/2021 20:58:02 -77.15, 24.46 91.71 10/20/2021 20:58:36 -77.16, 24.56 91.72 2.53 34
31 10/20/2021 21:48:42 77.15,-168.22 88.31 10/20/2021 21:49:22 77.18,-168.23 88.33 3.62 40
32 10/20/2021 22:39:23 -77.17, -0.79 91.67 10/20/2021 22:40:06 -77.16, -0.82 91.69 1.97 43
33 10/20/2021 23:30:03 77.17, 166.53 88.35 10/20/2021 23:30:52 77.18, 166.40 88.35 3.39 49
34 10/21/2021 00:20:45 -77.15, -26.22 91.66 10/21/2021 00:21:36 -77.16, -26.19 91.67 0.86 51
35 10/21/2021 01:11:25 77.15, 141.10 88.36 10/21/2021 01:12:21 77.14, 141.21 88.33 3.03 56
36 10/21/2021 02:02:06 -77.18, -51.47 91.62 10/21/2021 02:03:06 -77.16, -51.56 91.64 3.15 60
37 10/21/2021 02:52:46 77.17, 115.85 88.40 10/21/2021 02:53:51 77.14, 115.84 88.35 3.99 65
38 10/21/2021 03:43:28 -77.15, -76.90 91.61 10/21/2021 03:44:36 -77.16, -76.94 91.62 1.05 68
39 10/21/2021 04:34:08 77.15, 90.42 88.41 10/21/2021 04:35:21 77.14, 90.46 88.37 1.87 73
40 10/21/2021 05:24:51 -77.09,-102.50 91.63 10/21/2021 05:26:05 -77.11,-102.13 91.65 9.66 74
41 10/21/2021 06:15:37 76.82, 63.78 88.20 10/21/2021 06:16:45 76.88, 66.17 88.08 60.96 68
42 10/21/2021 07:06:20 -76.71,-129.30 91.87 10/21/2021 07:07:26 -76.76,-126.08 92.05 82.39 66



Historial Predications of SNOs between METOP-A and NPP
